Location: Olsztyn
(53.7767°N, 20.4765°E)
Time: 08:05:03
(UTC+01:00)

Transit 4A - Pass Details

Date: 05 October 2022
Orbit: 871 x 972 km, 66.8° (Epoch: 06 December)

Event Time Altitude Azimuth Distance (km) Brightness Sun altitude
Rises 06:02:45 0° 318° (NW) 3,514 10.5 -7.3°
Reaches altitude 10° 06:05:17 10° 320° (NW) 2,559 9.8 -7.0°
Maximum altitude 06:11:13 81° 48° (NE) 894 8.0 -6.1°
Drops below altitude 10° 06:17:02 10° 136° (SE) 2,518 10.9 -5.2°
Sets 06:19:30 0° 138° (SE) 3,453 11.6 -4.9°
